Location: ????
(30.1475°N, 31.1342°E)
Time: 06:40:01
(UTC+00:00)

Meteor 1-14 Rocket - Pass Details

Date: 06 April 2023
Orbit: 834 x 918 km, 81.3° (Epoch: 03 June)

Event Time Altitude Azimuth Distance (km) Brightness Sun altitude
Rises 23:44:52 0° 10° (N) 3,405 8.0 -45.1°
Reaches altitude 10° 23:47:50 10° 25° (NNE) 2,478 7.2 -44.7°
Enters shadow 23:49:08 15° 36° (NE) 2,144 6.8 -44.5°
